DELTA 1 DEB, 10867

Orbit data source: Space-Track

DELTA 1 DEB, 10867 is space debris in SSO originally from a launch on Thu, 29 Jul 1976 UTC launched from the Air Force Western Test Range (AFWTR). Debris objects in space refer to the collection of defunct objects orbiting the Earth. Examples of debris include non-operational satellites, rocket bodies, and fragments generated from explosions, collisions, or faulty payload assembly.

Loading next visibility...
Identifier
10867, 1976-077CV
Orbit
SSO
Country
Flag of USUS
Related business
Manufacturer
Unknown
Mission
Spacecraft
Bus & Motor
Unknown
Mass
Unknown
Launch date (UTC)
1976-07-29 (50 years ago)
Launch vehicle
Unknown
Launch site
Air Force Western Test Range (AFWTR)
Object type
Payload
Rocket body
Debris
Shape & HBR
Unknown shape, 0.1 m
Radar Cross Section
Medium (>0.1 m² and <1 m²)

Expand to show TLE details & history
Last TLE update: 15 hours ago

TLE from 15 hours ago
0 DELTA 1 DEB
1 10867U 76077CV  26170.99711123  .00005100  00000-0  12001-1 0  9999
2 10867 101.8257 178.0754 0404868 254.2685 127.1550 12.98274478317433
Epoch: 2026-06-19T23:55Z
TLE epoch observation values (Epoch: 2026-06-19T23:55:50.410Z)
Latitude
24.46816°
Longitude
-94.54333°
Altitude
1,466.263 km
Speed
7.04 km/s
True Right ascension
11h 30m 32s
True Declination
24° 21' 02"
Sunlit
Object was in daylight at epoch
Visualization orbit readout
Latitude
Unknown
Longitude
Unknown
Altitude
Unknown
Speed
Unknown
Apparent Right ascension
Unknown
Apparent Declination
Unknown
Sunlit
N/A
Visualization observer readout
Local Sidereal Time
01:23:18
Azimuth
Unknown
Elevation
Unknown
Doppler factor
Unknown
Orbital elements
Apogee altitude
1,575.841 km
Perigee altitude
956.84 km
Semi-major axis
7,644.478 km
Eccentricity
0.04049
Inclination
101.8257°
RAAN
178.0754°
Arg. of periapsis
254.2685°
True anomaly
130.74053°
Mean anomaly
127.155°
Eccentric anomaly
128.95881°
Mean motion
3.24729 °/min
Orbital period
110.86 mins
BSTAR
0.012001
Loading maneuver chart data...
Computing Atmospheric mass density...
Loading historical data...
Loading historical data...
Loading historical data...
Loading historical data...
Loading historical data...
Loading historical data...
Loading historical data...

Documentation

Showing up to 5 results
|